N1024H KACK-KMVY

Flight info

Callsign N1024H
Flight time 0h 22m
Altitude 8000
Route KACK CHOPY KMVY
Aircraft SR22/L-SBLB2U2B2C2D2O2S1/C

Departure

Time 2026-05-04 22:19
Airport Nantucket Memorial Airport (KACK)

Arrival

Time 2026-05-04 22:41
Airport Martha's Vineyard Airport (KMVY)
Time Latitude Longitude Altitude Speed Heading
2026-05-04 22:09 41.25638 -70.06314 43 ft 0 kts 45°
2026-05-04 22:16 41.25657 -70.06274 43 ft 11 kts 68°
2026-05-04 22:16 41.25719 -70.06170 45 ft 21 kts 53°
2026-05-04 22:17 41.25789 -70.06070 45 ft 21 kts 44°
2026-05-04 22:17 41.25934 -70.05876 46 ft 33 kts 49°
2026-05-04 22:17 41.25969 -70.05706 47 ft 0 kts 124°
2026-05-04 22:17 41.25968 -70.05706 47 ft 0 kts 129°
2026-05-04 22:18 41.25960 -70.05697 47 ft 7 kts 135°
2026-05-04 22:18 41.25901 -70.05658 46 ft 8 kts 199°
2026-05-04 22:18 41.25879 -70.05679 46 ft 0 kts 221°
2026-05-04 22:18 41.25794 -70.05793 45 ft 52 kts 225°
2026-05-04 22:19 41.25452 -70.06263 265 ft 73 kts 226°
2026-05-04 22:19 41.25124 -70.06699 671 ft 68 kts 226°
2026-05-04 22:19 41.24846 -70.07173 1074 ft 64 kts 246°
2026-05-04 22:19 41.24822 -70.07774 1434 ft 73 kts 272°
2026-05-04 22:20 41.25126 -70.08349 1788 ft 86 kts 299°
2026-05-04 22:20 41.25699 -70.08855 1966 ft 110 kts 313°
2026-05-04 22:20 41.26495 -70.09290 1960 ft 140 kts 333°
2026-05-04 22:20 41.27439 -70.09714 1894 ft 145 kts 324°
2026-05-04 22:21 41.28353 -70.10450 1783 ft 158 kts 313°
2026-05-04 22:21 41.29190 -70.11360 1871 ft 149 kts 308°
2026-05-04 22:21 41.29900 -70.12305 1893 ft 142 kts 299°
2026-05-04 22:21 41.30577 -70.13266 1893 ft 142 kts 298°
2026-05-04 22:22 41.31261 -70.14250 1901 ft 148 kts 299°
2026-05-04 22:22 41.31975 -70.15261 1899 ft 152 kts 299°
2026-05-04 22:22 41.32718 -70.16303 1902 ft 155 kts 300°
2026-05-04 22:22 41.33461 -70.17358 1902 ft 157 kts 300°
2026-05-04 22:23 41.34015 -70.18141 1891 ft 158 kts 300°
2026-05-04 22:23 41.34694 -70.19104 1887 ft 159 kts 300°
2026-05-04 22:23 41.35447 -70.20174 1882 ft 159 kts 301°
2026-05-04 22:23 41.36220 -70.21255 1865 ft 160 kts 300°
2026-05-04 22:24 41.36968 -70.22316 2023 ft 154 kts 300°
2026-05-04 22:24 41.37685 -70.23334 2269 ft 149 kts 300°
2026-05-04 22:24 41.38389 -70.24335 2511 ft 145 kts 301°
2026-05-04 22:24 41.39064 -70.25297 2752 ft 142 kts 301°
2026-05-04 22:25 41.39733 -70.26251 2995 ft 140 kts 301°
2026-05-04 22:25 41.40397 -70.27193 3238 ft 138 kts 302°
2026-05-04 22:25 41.41049 -70.28118 3483 ft 137 kts 302°
2026-05-04 22:25 41.41697 -70.29040 3727 ft 136 kts 303°
2026-05-04 22:26 41.42339 -70.29951 3975 ft 135 kts 303°
2026-05-04 22:26 41.42978 -70.30859 4223 ft 135 kts 303°
2026-05-04 22:26 41.43620 -70.31772 4182 ft 135 kts 304°
2026-05-04 22:26 41.44272 -70.32690 3945 ft 137 kts 304°
2026-05-04 22:27 41.44939 -70.33637 3696 ft 142 kts 303°
2026-05-04 22:27 41.45622 -70.34608 3449 ft 146 kts 303°
2026-05-04 22:27 41.46322 -70.35603 3200 ft 149 kts 303°
2026-05-04 22:27 41.47045 -70.36629 2944 ft 152 kts 302°
2026-05-04 22:28 41.47763 -70.37650 2694 ft 153 kts 303°
2026-05-04 22:28 41.48494 -70.38690 2445 ft 154 kts 302°
2026-05-04 22:28 41.49222 -70.39724 2190 ft 152 kts 301°
2026-05-04 22:28 41.49941 -70.40748 1936 ft 152 kts 301°
2026-05-04 22:29 41.50660 -70.41773 1710 ft 149 kts 300°
2026-05-04 22:29 41.51340 -70.42740 1672 ft 137 kts 299°
2026-05-04 22:29 41.51984 -70.43658 1675 ft 133 kts 300°
2026-05-04 22:29 41.52617 -70.44550 1674 ft 130 kts 299°
2026-05-04 22:30 41.53252 -70.45408 1676 ft 136 kts 311°
2026-05-04 22:30 41.54233 -70.45682 1682 ft 158 kts 358°
2026-05-04 22:30 41.55253 -70.45027 1681 ft 169 kts 38°
2026-05-04 22:30 41.56128 -70.43952 1685 ft 171 kts 43°
2026-05-04 22:31 41.56998 -70.42844 1681 ft 172 kts 42°
2026-05-04 22:31 41.57849 -70.41730 1699 ft 172 kts 53°
2026-05-04 22:31 41.58212 -70.40285 1711 ft 159 kts 105°
2026-05-04 22:31 41.57848 -70.39017 1716 ft 136 kts 146°
2026-05-04 22:32 41.57092 -70.38483 1556 ft 121 kts 189°
2026-05-04 22:32 41.56446 -70.38908 1715 ft 96 kts 235°
2026-05-04 22:32 41.56081 -70.39629 1716 ft 99 kts 240°
2026-05-04 22:32 41.55822 -70.40545 1646 ft 106 kts 250°
2026-05-04 22:33 41.55583 -70.41443 1685 ft 101 kts 243°
2026-05-04 22:33 41.55193 -70.42223 1630 ft 101 kts 233°
2026-05-04 22:33 41.54785 -70.42945 1671 ft 95 kts 234°
2026-05-04 22:33 41.54398 -70.43629 1683 ft 92 kts 233°
2026-05-04 22:34 41.54041 -70.44347 1667 ft 92 kts 234°
2026-05-04 22:34 41.53612 -70.44970 1598 ft 92 kts 223°
2026-05-04 22:34 41.53121 -70.45549 1501 ft 97 kts 225°
2026-05-04 22:34 41.52619 -70.46130 1526 ft 95 kts 224°
2026-05-04 22:35 41.52109 -70.46732 1473 ft 99 kts 224°
2026-05-04 22:35 41.51587 -70.47323 1470 ft 95 kts 222°
2026-05-04 22:35 41.51074 -70.47910 1414 ft 101 kts 226°
2026-05-04 22:35 41.50581 -70.48438 1649 ft 81 kts 222°
2026-05-04 22:36 41.50178 -70.48873 1739 ft 72 kts 223°
2026-05-04 22:36 41.49750 -70.49360 1580 ft 87 kts 224°
2026-05-04 22:36 41.49269 -70.49910 1426 ft 96 kts 222°
2026-05-04 22:36 41.48741 -70.50454 1418 ft 94 kts 221°
2026-05-04 22:37 41.48239 -70.51019 1495 ft 92 kts 224°
2026-05-04 22:37 41.47758 -70.51591 1507 ft 96 kts 225°
2026-05-04 22:37 41.47241 -70.52187 1475 ft 101 kts 224°
2026-05-04 22:37 41.46706 -70.52818 1458 ft 105 kts 225°
2026-05-04 22:38 41.46161 -70.53478 1508 ft 110 kts 223°
2026-05-04 22:38 41.45547 -70.54136 1504 ft 113 kts 221°
2026-05-04 22:38 41.44941 -70.54803 1421 ft 113 kts 224°
2026-05-04 22:38 41.44350 -70.55491 1280 ft 112 kts 224°
2026-05-04 22:39 41.43767 -70.56160 1122 ft 110 kts 224°
2026-05-04 22:39 41.43210 -70.56790 927 ft 98 kts 223°
2026-05-04 22:39 41.42722 -70.57333 821 ft 82 kts 223°
2026-05-04 22:39 41.42322 -70.57795 792 ft 68 kts 224°
2026-05-04 22:40 41.41963 -70.58189 631 ft 64 kts 223°
2026-05-04 22:40 41.41639 -70.58581 508 ft 63 kts 223°
2026-05-04 22:40 41.41280 -70.58961 430 ft 64 kts 222°
2026-05-04 22:40 41.40956 -70.59347 393 ft 61 kts 222°
2026-05-04 22:41 41.40613 -70.59724 310 ft 66 kts 220°
2026-05-04 22:41 41.40244 -70.60142 210 ft 70 kts 223°
2026-05-04 22:41 41.39876 -70.60561 106 ft 63 kts 225°
2026-05-04 22:41 41.39634 -70.60802 61 ft 5 kts 160°
2026-05-04 22:42 41.39638 -70.60805 61 ft 5 kts 255°
2026-05-04 22:42 41.39568 -70.60908 61 ft 19 kts 224°
2026-05-04 22:42 41.39463 -70.60974 59 ft 11 kts 141°
2026-05-04 22:42 41.39419 -70.60917 59 ft 0 kts 128°
2026-05-04 22:43 41.39419 -70.60908 59 ft 4 kts 80°
2026-05-04 22:43 41.39424 -70.60875 59 ft 8 kts 86°
2026-05-04 22:43 41.39393 -70.60805 58 ft 6 kts 219°
2026-05-04 22:43 41.39391 -70.60809 58 ft 0 kts 259°